Todos
Wsmv-Tv Airport (Nashville, TN) TN60 Condiciones meteorológicas
There is no TAF data available at TN60 or any nearby airports.
There is no METAR data available at TN60. Showing METAR data for M02 (24 mi E).
Historial METAR M02 reciente (no hay datos para TN60)
| Date | Time (CDT) | Flight Rules | Wind Dir. | Speed | Type | Height AGL (ft) | Visibility | Temp (°C) | Temp (°F) | Dew Point (°C) | Dew Point (°F) | Rel. Humid. | Pressure | Density Altitude | Remarks |
|---|---|---|---|---|---|---|---|---|---|---|---|---|---|---|---|
| 09-may | 06:15AM | VFR | 210° | 10 kt | 10 miles | 12° | 53° | 11° | 51° | 94% | 29.80 in Hg | 652 ft | |||
| 09-may | 05:55AM | VFR | 210° | 9 kt | 10 miles | 12° | 53° | 11° | 51° | 94% | 29.80 in Hg | 652 ft | |||
| 09-may | 05:15AM | VFR | 200° | 7 kt | 10 miles | 12° | 53° | 11° | 51° | 94% | 29.80 in Hg | 652 ft | |||
| 09-may | 04:55AM | VFR | 200° | 6 kt | 10 miles | 12° | 53° | 11° | 51° | 94% | 29.81 in Hg | 642 ft | |||
| 09-may | 04:15AM | VFR | 210° | 4 kt | 10 miles | 12° | 53° | 10° | 50° | 88% | 29.81 in Hg | 642 ft | |||
| 09-may | 03:55AM | VFR | 230° | 6 kt | 10 miles | 13° | 55° | 11° | 51° | 88% | 29.82 in Hg | 752 ft | |||
| 09-may | 03:15AM | VFR | 210° | 8 kt | 10 miles | 13° | 55° | 11° | 51° | 88% | 29.81 in Hg | 762 ft | |||
| 09-may | 02:55AM | VFR | 220° | 6 kt | 10 miles | 13° | 55° | 11° | 51° | 88% | 29.81 in Hg | 762 ft | |||
| 09-may | 02:15AM | VFR | 210° | 7 kt | 10 miles | 13° | 55° | 11° | 51° | 88% | 29.80 in Hg | 772 ft | |||
| 09-may | 01:55AM | VFR | 210° | 9 kt | 10 miles | 12° | 53° | 10° | 50° | 88% | 29.82 in Hg | 632 ft | |||
| 09-may | 01:35AM | VFR | 200° | 6 kt | 10 miles | 12° | 53° | 10° | 50° | 88% | 29.83 in Hg | 622 ft | |||
| 09-may | 01:15AM | VFR | 210° | 6 kt | 10 miles | 13° | 55° | 10° | 50° | 82% | 29.84 in Hg | 732 ft | |||
| 09-may | 12:55AM | VFR | 230° | 4 kt | 10 miles | 13° | 55° | 10° | 50° | 82% | 29.85 in Hg | 722 ft | |||
| 09-may | 12:15AM | VFR | 220° | 5 kt | 10 miles | 13° | 55° | 10° | 50° | 82% | 29.85 in Hg | 722 ft | |||
| 08-may | 11:55PM | VFR | 220° | 6 kt | 10 miles | 14° | 57° | 9° | 48° | 72% | 29.84 in Hg | 852 ft | |||
| 08-may | 11:15PM | VFR | 210° | 8 kt | 10 miles | 15° | 59° | 9° | 48° | 67% | 29.85 in Hg | 962 ft | |||
| 08-may | 10:55PM | VFR | 210° | 7 kt | 10 miles | 15° | 59° | 9° | 48° | 67% | 29.85 in Hg | 962 ft | Wind gusting to 13 KT | ||
| 08-may | 10:15PM | VFR | 200° | 9 kt | 10 miles | 16° | 60° | 8° | 46° | 59% | 29.85 in Hg | 1.082 ft | |||
| 08-may | 09:55PM | VFR | 190° | 7 kt | 10 miles | 16° | 60° | 8° | 46° | 59% | 29.85 in Hg | 1.082 ft | |||
| 08-may | 09:15PM | VFR | 190° | 8 kt | 10 miles | 17° | 62° | 7° | 44° | 52% | 29.85 in Hg | 1.202 ft | |||
| 08-may | 08:55PM | VFR | 190° | 5 kt | 10 miles | 17° | 62° | 7° | 44° | 52% | 29.85 in Hg | 1.202 ft | |||
| 08-may | 08:35PM | VFR | 190° | 6 kt | 10 miles | 17° | 62° | 7° | 44° | 52% | 29.85 in Hg | 1.202 ft | |||
| 08-may | 08:15PM | VFR | 190° | 6 kt | 10 miles | 18° | 64° | 7° | 44° | 49% | 29.85 in Hg | 1.322 ft | |||
| 08-may | 07:55PM | VFR | 180° | 6 kt | 10 miles | 19° | 66° | 7° | 44° | 46% | 29.84 in Hg | 1.452 ft |
Entrar
| Tu navegador no está contemplado. eleva la categoría de tu navegador |
